HUANJING 1B (HJ-1B)

Last updated on Thu Jul 03 2025 00:02:29 GMT+0000 (Coordinated Universal Time)

1 33321U 08041B 25183.58872604 .00000674 00000+0 89910-4 0 9991 2 33321 97.6292 182.9530 0035545 249.7107 110.0285 14.82290872906600
UTC large
Height (km)
Speed (km/s)
/
Latitude / Longitude
Inclination (degrees)
Orbital Period (minutes)
Azimuth
Elevation
Range (km)
Doppler Factor

Next 0 passes for location: London (51.5072 / 0.1276)

Sorry there are no passes over London.